Regional Weather Roundup
Issued by NWS Sioux Falls, SD

Home | Current Version | Previous Version | Text Only | Print | Product List | Glossary On
Versions: 1 2 3 4 5 6 7 8 9 10 11 12 13 14 15 16 17 18 19 20 21 22 23 24 25 26 27 28 29 30 31 32 33 34 35 36 37 38 39 40 41 42 43 44 45 46 47 48 49 50
000
ASUS43 KFSD 192310
RWRFSD

WEATHER ROUNDUP FOR SE SOUTH DAKOTA/SW MINNESOTA/NW IOWA
NATIONAL WEATHER SERVICE SIOUX FALLS SD
500 PM CST FRI DEC 19 2014

NOTE: "FAIR" INDICATES FEW OR NO CLOUDS BELOW 12,000 FEET WITH NO
SIGNIFICANT WEATHER AND OR OBSTRUCTIONS TO VISIBILITY.


SDZ038>040-050-052>070-200000-
SOUTHEAST SOUTH DAKOTA

CITY           SKY/WX    TMP DP  RH WIND       PRES   REMARKS
CHAMBERLAIN    MOCLDY    27  23  84 SE5       30.01R WCI  22
HURON          CLOUDY    30  28  92 S12       30.04R FOG     WCI  20
MADISON        CLOUDY    27  27 100 S15       30.06R FOG     WCI  15
MITCHELL       CLOUDY    31  29  92 S10       30.06R FOG     WCI  22
SIOUX FALLS    CLOUDY    31  28  89 S13       30.09S WCI  21
WINNER         FAIR      34  25  69 CALM      29.98S
YANKTON        CLOUDY    34  28  80 S10       30.09F WCI  26
$$

MNZ071-072-080-081-089-090-097-098-200000-
SOUTHWEST MINNESOTA

CITY           SKY/WX    TMP DP  RH WIND       PRES   REMARKS
FAIRMONT       CLOUDY    32  25  74 S12       30.16S WCI  23
JACKSON        CLOUDY    32  28  86 S10       30.13S WCI  24
LUVERNE        CLOUDY    32  30  93 S13       30.11S FOG     WCI  22
MARSHALL       CLOUDY    30  27  86 S10       30.10R WCI  21
MONTEVIDEO     CLOUDY    30  30 100 SW9       30.11S WCI  22
PIPESTONE      CLOUDY    28  28 100 S6        30.07S FOG     WCI  22
REDWOOD FALLS  CLOUDY    33  28  81 S13       30.12S WCI  24
TRACY          CLOUDY    32  30  91 S10G16    30.10R WCI  24
WINDOM         CLOUDY    32  28  86 S10       30.12S WCI  24
WORTHINGTON    CLOUDY    30  27  86 S15       30.11S WCI  19
$$

IAZ001>003-012>014-020>022-031-032-NEZ013-014-SDZ071-200000-
NORTHWEST IOWA

CITY           SKY/WX    TMP DP  RH WIND       PRES   REMARKS
CHEROKEE       CLOUDY    32  29  88 S8        30.14S WCI  25
DENISON        CLOUDY    32  32 100 S9        30.13F FOG     WCI  24
ESTHERVILLE    CLOUDY    31  29  92 S12       30.14F FOG     WCI  22
LE MARS        CLOUDY    32  28  86 S14G20    30.13S WCI  22
ORANGE CITY    CLOUDY    34  28  80 S13       30.11S WCI  25
SHELDON        CLOUDY    32  30  93 S15G23    30.11S WCI  22
SIOUX CITY     CLOUDY    34  28  79 S14       30.14S WCI  25
SPENCER        CLOUDY    33  28  81 S10       30.14S WCI  25
STORM LAKE     CLOUDY    32  28  86 S14       30.15S WCI  22
$$

ABBREVIATIONS USED IN REMARKS
   TC - TEMPERATURE IN CELSIUS
  WCI - WIND CHILL INDEX
   HX - HEAT INDEX
  VSB - VISIBILITY




USA.gov is the U.S. government's official web portal to all federal, state and local government web resources and services.